Tracking 25710 objects as of 5-Jul-2022
HD Live streaming from Space Station
objects crossing your sky now

FENGYUN 1C DEB

Track FENGYUN 1C DEB now!
10-day predictions


NORAD ID: 30859
Int'l Code: 1999-025AWV
Perigee: 788.6 km
Apogee: 871.8 km
Inclination: 99.0 °
Period: 101.4 minutes
Semi major axis: 7201 km
RCS: 0.0174 m2 (small)
Launch date: May 10, 1999
Source: People's Republic of China (PRC)
Launch site: Taiyaun Space Center, China (TSC)

Note: This is SATELLITE DEBRIS
aabbcc
Your satellite tracking list
Your tracking list is empty




NASA's NSSDC Master Catalog

Two Line Element Set (TLE):
1 30859U 99025AWV 22185.90336082  .00002302  00000-0  10714-2 0  9991
2 30859  98.9533 180.3405 0057773  96.1824 264.5938 14.20672287790444
Source of the keplerian elements: AFSPC